Погода в Ореве

Россия / Орловская область     52°49′21″N   37°38′48″E
темп.,
°C
ветер,
м/с
пор.,
м/с
влажн.,
%
обл.,
%
осадки,
мм/ч
давл.,
гПа
погр.,
м
17 апреля, сб
сб1700:00+9ю22695 0.0 101816
03:00+7ююв007388 0.0 101810
06:00+7с2277100 0.0 101819
09:00+7зюз3488100 1.4 1018217
12:00+6з1194100 5.1 1018191
15:00+6юз348793 5.6 1018412
18:00+7юз3479100 0.0 1018473
21:00+6в228952 0.1 101920
18 апреля, вс
вс1800:00+5юв33925 0.0 101960
03:00+4ю228784 0.0 101941
06:00+4ююв2388100 0.0 101963
09:00+8ююв347283 0.0 1019548
12:00+9ю3360100 0.2 10191042
15:00+11ююв3451100 0.2 10191568
18:00+10юв3455100 0.1 10191107
21:00+8юв3575100 0.1 1020122
19 апреля, пн
пн1900:00+7вюв2277100 0.0 102035
03:00+7вюв3679100 0.0 1019148
06:00+6ююв2585100 0.3 1020209
09:00+8в477392 1.3 1019442
12:00+11вюв565894 0.1 10181480
15:00+13в4549100 0.4 10171753
18:00+11всв576675 0.4 1016533
21:00+8всв8138829 0.8 1016407
20 апреля, вт
вт2000:00+8в81289100 0.2 1016609
03:00+7всв71293100 0.4 1014646
06:00+7всв71295100 1.1 1012689
09:00+7всв71394100 1.6 1010708
12:00+7всв81594100 1.1 1008733
15:00+7в112093100 4.6 1002867
18:00+8вюв132393100 6.3 9981185
21:00+11юв8139526 8.6 997624
21 апреля, ср
ср2100:00+9ююв8159024 1.0 998626
03:00+8ююв91488100 1.6 9981138
06:00+5юз81192100 0.8 1001878
09:00+4юз81487100 1.1 10051115
12:00+7ююз81377100 0.1 10091380
15:00+10юз9146497 0.2 10111739
18:00+10юз6106497 0.0 10121126
21:00+7ююз3982100 0.0 1015207